• în Republica Moldova
  • Lista ţărilor
  • Pe 7 zile
  • Temperatura apei
  • Hartă satelitară
  • Meteo pe hartă
  • Widget-uri
  • user-avatar
    Intrare

    Meteo pe oră la Lenkoran

    Astăzi, 29 Mai, Luni

    Timp Temperatura Precipitaţii Vânt Presiune Umiditate
    00:00 +12°C° 0 mm 1 m/s 634 mmHg 82%
    01:00 +11°C° 0 mm 1 m/s 634 mmHg 83%
    02:00 +10°C° 0 mm 1 m/s 634 mmHg 84%
    03:00 +10°C° 0 mm 1 m/s 634 mmHg 90%
    04:00 +11°C° 0 mm 1 m/s 635 mmHg 86%
    05:00 +12°C° 0 mm 1 m/s 635 mmHg 82%
    06:00 +14°C° 0 mm 1 m/s 636 mmHg 79%
    07:00 +15°C° 0 mm 2 m/s 637 mmHg 71%
    08:00 +17°C° 0 mm 2 m/s 637 mmHg 62%
    09:00 +19°C° 0 mm 3 m/s 638 mmHg 54%
    10:00 +19°C° 0 mm 3 m/s 638 mmHg 52%
    11:00 +20°C° 0 mm 3 m/s 638 mmHg 51%
    12:00 +20°C° 0 mm 3 m/s 638 mmHg 50%
    13:00 +20°C° 0 mm 3 m/s 638 mmHg 51%
    14:00 +20°C° 0 mm 3 m/s 638 mmHg 53%
    15:00 +20°C° 0 mm 3 m/s 637 mmHg 55%
    16:00 +19°C° 0 mm 3 m/s 637 mmHg 61%
    17:00 +18°C° 0 mm 3 m/s 637 mmHg 66%
    18:00 +16°C° 0 mm 3 m/s 637 mmHg 72%
    19:00 +14°C° 0 mm 3 m/s 637 mmHg 76%
    20:00 +14°C° 0 mm 2 m/s 636 mmHg 80%
    21:00 +12°C° 0 mm 2 m/s 636 mmHg 84%
    22:00 +12°C° 0 mm 2 m/s 636 mmHg 83%
    23:00 +10°C° 0 mm 2 m/s 636 mmHg 82%

    Mâine, 30 Mai, Marţi

    Timp Temperatura Precipitaţii Vânt Presiune Umiditate
    00:00 +10°C° 0 mm 2 m/s 636 mmHg 81%
    01:00 +10°C° 0 mm 1 m/s 635 mmHg 80%
    02:00 +10°C° 0 mm 1 m/s 635 mmHg 79%
    03:00 +10°C° 0 mm 1 m/s 635 mmHg 78%
    04:00 +11°C° 0 mm 1 m/s 635 mmHg 74%
    05:00 +13°C° 0 mm 1 m/s 636 mmHg 70%
    06:00 +14°C° 0 mm 1 m/s 636 mmHg 65%
    07:00 +16°C° 0 mm 2 m/s 636 mmHg 59%
    08:00 +18°C° 0 mm 2 m/s 637 mmHg 52%
    09:00 +20°C° 0 mm 2 m/s 637 mmHg 46%
    10:00 +22°C° 0 mm 3 m/s 637 mmHg 44%
    11:00 +24°C° 0 mm 3 m/s 637 mmHg 41%
    12:00 +25°C° 0 mm 3 m/s 637 mmHg 39%
    13:00 +25°C° 0 mm 3 m/s 636 mmHg 39%
    14:00 +25°C° 0 mm 3 m/s 636 mmHg 40%
    15:00 +25°C° 0 mm 3 m/s 635 mmHg 40%
    16:00 +24°C° 0 mm 3 m/s 635 mmHg 46%
    17:00 +23°C° 0 mm 2 m/s 634 mmHg 52%
    18:00 +21°C° 0 mm 2 m/s 634 mmHg 59%
    19:00 +19°C° 0 mm 2 m/s 633 mmHg 64%
    20:00 +18°C° 0 mm 1 m/s 633 mmHg 70%
    21:00 +15°C° 0 mm 1 m/s 633 mmHg 76%
    22:00 +14°C° 0 mm 1 m/s 632 mmHg 75%
    23:00 +14°C° 0 mm 1 m/s 632 mmHg 75%

    Poimâine, 31 Mai, Miercuri

    Timp Temperatura Precipitaţii Vânt Presiune Umiditate
    00:00 +14°C° 0 mm 1 m/s 632 mmHg 75%
    01:00 +14°C° 0 mm 1 m/s 632 mmHg 74%
    02:00 +13°C° 0 mm 1 m/s 632 mmHg 73%
    03:00 +13°C° 0 mm 1 m/s 631 mmHg 72%
    04:00 +14°C° 0 mm 1 m/s 632 mmHg 68%
    05:00 +16°C° 0 mm 1 m/s 633 mmHg 64%
    06:00 +19°C° 0 mm 1 m/s 633 mmHg 60%
    07:00 +20°C° 0 mm 1 m/s 634 mmHg 53%
    08:00 +21°C° 0 mm 2 m/s 634 mmHg 46%
    09:00 +24°C° 0 mm 2 m/s 635 mmHg 39%
    10:00 +24°C° 0 mm 2 m/s 634 mmHg 38%
    11:00 +25°C° 0 mm 3 m/s 634 mmHg 37%
    12:00 +26°C° 0 mm 3 m/s 634 mmHg 37%
    13:00 +26°C° 0 mm 3 m/s 633 mmHg 38%
    14:00 +26°C° 0 mm 4 m/s 633 mmHg 40%
    15:00 +26°C° 0 mm 4 m/s 632 mmHg 42%
    16:00 +24°C° 0 mm 3 m/s 632 mmHg 49%
    17:00 +22°C° 0 mm 3 m/s 631 mmHg 55%
    18:00 +20°C° 0 mm 2 m/s 631 mmHg 62%
    19:00 +18°C° 0 mm 2 m/s 631 mmHg 64%
    20:00 +16°C° 0 mm 2 m/s 631 mmHg 66%
    21:00 +14°C° 0 mm 3 m/s 630 mmHg 68%
    22:00 +14°C° 0 mm 2 m/s 630 mmHg 67%
    23:00 +14°C° 0 mm 2 m/s 630 mmHg 65%

    1 Iunie, Joi

    Timp Temperatura Precipitaţii Vânt Presiune Umiditate
    00:00 +13°C° 0 mm 2 m/s 630 mmHg 64%
    01:00 +12°C° 0 mm 2 m/s 630 mmHg 64%
    02:00 +12°C° 0 mm 2 m/s 630 mmHg 65%
    03:00 +10°C° 0 mm 2 m/s 630 mmHg 66%
    04:00 +13°C° 0 mm 2 m/s 630 mmHg 62%
    05:00 +14°C° 0 mm 2 m/s 631 mmHg 59%
    06:00 +15°C° 0 mm 1 m/s 632 mmHg 56%
    07:00 +17°C° 0 mm 2 m/s 632 mmHg 48%
    08:00 +19°C° 0 mm 2 m/s 633 mmHg 41%
    09:00 +21°C° 0 mm 3 m/s 633 mmHg 33%
    10:00 +21°C° 0 mm 3 m/s 633 mmHg 33%
    11:00 +22°C° 0 mm 3 m/s 633 mmHg 33%
    12:00 +23°C° 0 mm 4 m/s 633 mmHg 32%
    13:00 +22°C° 0 mm 4 m/s 632 mmHg 35%
    14:00 +22°C° 0 mm 4 m/s 632 mmHg 37%
    15:00 +22°C° 0 mm 4 m/s 631 mmHg 39%
    16:00 +21°C° 0,1 mm 4 m/s 631 mmHg 48%
    17:00 +19°C° 0,1 mm 3 m/s 631 mmHg 56%
    18:00 +17°C° 0,1 mm 3 m/s 631 mmHg 65%
    19:00 +15°C° 0 mm 2 m/s 631 mmHg 71%
    20:00 +13°C° 0 mm 2 m/s 631 mmHg 77%
    21:00 +11°C° 0 mm 1 m/s 631 mmHg 83%
    22:00 +11°C° 0 mm 1 m/s 631 mmHg 82%
    23:00 +11°C° 0 mm 1 m/s 631 mmHg 81%

    2 Iunie, Vineri

    Timp Temperatura Precipitaţii Vânt Presiune Umiditate
    00:00 +10°C° 0 mm 1 m/s 630 mmHg 80%
    01:00 +10°C° 0 mm 1 m/s 630 mmHg 81%
    02:00 +9°C° 0 mm 1 m/s 630 mmHg 82%
    03:00 +9°C° 0 mm 1 m/s 630 mmHg 83%
    04:00 +10°C° 0 mm 1 m/s 631 mmHg 81%
    05:00 +12°C° 0 mm 1 m/s 632 mmHg 78%
    06:00 +13°C° 0 mm 1 m/s 633 mmHg 75%
    07:00 +15°C° 0 mm 2 m/s 633 mmHg 70%
    08:00 +16°C° 0 mm 2 m/s 634 mmHg 64%
    09:00 +17°C° 0 mm 2 m/s 634 mmHg 58%
    10:00 +18°C° 0 mm 3 m/s 634 mmHg 55%
    11:00 +19°C° 0 mm 3 m/s 634 mmHg 52%
    12:00 +20°C° 0 mm 3 m/s 634 mmHg 49%
    13:00 +20°C° 0 mm 3 m/s 634 mmHg 51%
    14:00 +20°C° 0 mm 4 m/s 634 mmHg 52%
    15:00 +19°C° 0 mm 4 m/s 633 mmHg 54%
    16:00 +18°C° 0 mm 4 m/s 633 mmHg 58%
    17:00 +17°C° 0 mm 3 m/s 633 mmHg 63%
    18:00 +16°C° 0 mm 3 m/s 633 mmHg 68%
    19:00 +13°C° 0 mm 3 m/s 633 mmHg 73%
    20:00 +13°C° 0 mm 2 m/s 633 mmHg 78%
    21:00 +10°C° 0 mm 2 m/s 633 mmHg 83%
    22:00 +10°C° 0 mm 2 m/s 633 mmHg 82%
    23:00 +9°C° 0 mm 2 m/s 633 mmHg 81%

    3 Iunie, Sâmbătă

    Timp Temperatura Precipitaţii Vânt Presiune Umiditate
    00:00 +9°C° 0 mm 2 m/s 633 mmHg 81%
    01:00 +10°C° 0 mm 1 m/s 633 mmHg 82%
    02:00 +9°C° 0 mm 1 m/s 632 mmHg 82%
    03:00 +9°C° 0 mm 1 m/s 632 mmHg 83%
    04:00 +10°C° 0 mm 1 m/s 633 mmHg 79%
    05:00 +12°C° 0 mm 1 m/s 634 mmHg 74%
    06:00 +13°C° 0 mm 1 m/s 635 mmHg 70%
    07:00 +15°C° 0 mm 2 m/s 635 mmHg 64%
    08:00 +16°C° 0 mm 3 m/s 636 mmHg 59%
    09:00 +17°C° 0 mm 3 m/s 636 mmHg 54%
    10:00 +18°C° 0 mm 3 m/s 636 mmHg 52%
    11:00 +19°C° 0 mm 4 m/s 636 mmHg 50%
    12:00 +20°C° 0 mm 4 m/s 636 mmHg 48%
    13:00 +19°C° 0 mm 4 m/s 636 mmHg 49%
    14:00 +19°C° 0 mm 4 m/s 635 mmHg 51%
    15:00 +19°C° 0 mm 4 m/s 635 mmHg 52%
    16:00 +18°C° 0 mm 3 m/s 635 mmHg 57%
    17:00 +17°C° 0 mm 3 m/s 635 mmHg 62%
    18:00 +14°C° 0 mm 3 m/s 635 mmHg 67%
    19:00 +14°C° 0 mm 2 m/s 635 mmHg 72%
    20:00 +13°C° 0 mm 2 m/s 635 mmHg 77%
    21:00 +12°C° 0 mm 1 m/s 635 mmHg 82%
    22:00 +11°C° 0 mm 1 m/s 635 mmHg 83%
    23:00 +10°C° 0 mm 1 m/s 635 mmHg 84%
    Arată mai mult